Back to catalog

STARLINK-37655

AliveCommunicationsSSO
NORAD 69142·PAYLOAD·🇺🇸 United States

Launched May 20, 2026 from Vandenberg Space Force Base

Loading…

Next Passes (next 24 hours)

TLE

FreshSource: CelesTrak SupGP

Epoch: Sep 14, 2026, 23:21 UTC

1 69142C 26110U   26257.97340278  .00070629  00000+0  21927-2 0  2577
2 69142  97.2849  93.1537 0001649  94.6648 207.3859 15.33399369    14

Track STARLINK-37655 in real time with AllMySat

Download on the App Store